Tracking 23752 objects as of 24-Oct-2021
HD Live streaming from Space Station
objects crossing your sky now

SL-14 DEB

Track SL-14 DEB now!
10-day predictions


NORAD ID: 45292
Int'l Code: 1991-056AE
Perigee: 1,096.3 km
Apogee: 1,237.2 km
Inclination: 82.6 °
Period: 108.5 minutes
Semi major axis: 7537 km
RCS: Unknown
Launch date: August 15, 1991
Source: Commonwealth of Independent States (former USSR) (CIS)
Launch site: PLESETSK MISSILE AND SPACE COMPLEX (PKMTR)

Note: This is SATELLITE DEBRIS
aabbcc
Your satellite tracking list
Your tracking list is empty




NASA's NSSDC Master Catalog

Two Line Element Set (TLE):
1 45292U 91056AE  21296.33966367  .00001325  00000-0  28903-2 0  9991
2 45292  82.6350 256.9900 0093457 247.3749 111.7474 13.26611303 81216
Source of the keplerian elements: AFSPC